KB2KRJ Weather Reports


Display with metric or nautical units.
time (UTC)temp
F
wind
direction
speed
MPH
gust
MPH
rain 1hr
in
rain 24hr
in
rain mn
in
humidity
%
barometer
mb
20260502234545 48 61 0.0 3.0 0.00 0.07 0.06 49 1012.5
20260502233029 49 215 0.0 3.0 0.00 0.07 0.06 45 1012.4
20260502231530 49 169 0.0 5.0 0.00 0.07 0.06 44 1012.3
20260502230028 50 184 1.0 10.0 0.00 0.07 0.06 42 1012.1
20260502224529 51 221 2.0 7.0 0.00 0.07 0.06 40 1012.0
20260502223028 51 171 0.0 9.0 0.00 0.07 0.06 45 1011.8
20260502221529 51 330 2.0 7.0 0.00 0.07 0.06 44 1011.8
20260502220027 50 196 0.0 4.0 0.00 0.07 0.06 47 1011.7
20260502214538 52 163 1.0 5.0 0.00 0.07 0.06 44 1011.8
20260502213026 52 135 1.0 5.0 0.00 0.07 0.06 43 1011.5
20260502211534 53 182 1.0 7.0 0.00 0.07 0.06 41 1011.4
20260502210026 52 57 1.0 7.0 0.00 0.07 0.06 41 1011.4
20260502204525 52 229 0.0 7.0 0.00 0.07 0.06 41 1011.3
20260502203025 53 81 1.0 7.0 0.00 0.07 0.06 40 1011.3
20260502201523 54 195 2.0 7.0 0.00 0.07 0.06 42 1011.5
20260502200022 54 132 0.0 3.0 0.00 0.07 0.06 41 1011.5
20260502194521 53 218 0.0 6.0 0.00 0.07 0.06 40 1011.7
20260502193021 55 254 1.0 6.0 0.00 0.07 0.06 40 1011.8
20260502191522 53 210 2.0 7.0 0.00 0.07 0.06 41 1011.9
20260502190019 53 163 2.0 9.0 0.00 0.07 0.06 42 1012.0
20260502184519 54 211 0.0 7.0 0.00 0.07 0.06 43 1011.9
20260502183019 54 144 1.0 7.0 0.00 0.07 0.06 43 1012.0
20260502181518 56 210 3.0 13.0 0.00 0.07 0.06 39 1011.9
20260502163010 52 192 2.0 7.0 0.00 0.07 0.06 51 1012.4
20260502161507 51 350 1.0 7.0 0.00 0.07 0.06 51 1012.5
20260502151503 51 184 1.0 7.0 0.00 0.07 0.06 62 1013.0
20260502123049 46 207 1.0 4.0 0.00 0.07 0.06 45 1013.4
20260502121550 46 211 2.0 6.0 0.00 0.07 0.06 34 1013.2
20260502114536 0 0.0 0.0 0.00 0.07 0.06 1013.2
20260502113032 0 0.0 0.0 0.00 0.07 0.06 1013.3
20260502111532 0 0.0 0.0 0.00 0.07 0.06 1013.0
20260502110029 0 0.0 0.0 0.00 0.07 0.06 1012.9
20260502104518 0 0.0 0.0 0.00 0.07 0.06 1012.6
20260502103017 0 0.0 0.0 0.01 0.07 0.06 1012.6
20260502101513 48 194 0.0 0.0 0.01 0.07 0.06 21 1012.3
20260502091510 48 194 0.0 0.0 0.00 0.06 0.05 22 1012.0
20260502070059 48 194 0.0 0.0 0.01 0.06 0.05 26 1012.1
20260502064601 48 194 0.0 0.0 0.02 0.06 0.05 27 1012.3
20260502063059 48 194 0.0 0.0 0.02 0.06 0.05 28 1012.4
20260502061556 48 194 0.0 0.0 0.01 0.05 0.04 29 1012.4
20260502060056 48 194 0.0 0.0 0.01 0.05 0.04 29 1012.3
20260502054602 48 194 0.0 0.0 0.00 0.04 0.03 31 1012.3
20260502053055 48 194 0.0 0.0 0.00 0.04 0.03 33 1012.2
20260502051552 48 194 0.0 0.0 0.02 0.04 0.03 34 1012.2
20260502050049 48 194 0.0 0.0 0.03 0.04 0.03 37 1012.2
20260502044548 48 194 0.0 0.0 0.03 0.04 0.03 39 1012.3
20260502043046 48 194 0.0 0.0 0.03 0.04 0.03 42 1012.4
20260502041544 48 194 0.0 0.0 0.02 0.02 0.01 45 1012.5
20260502040041 48 194 0.0 0.0 0.01 0.01 0.00 48 1012.5
20260502034541 48 194 0.0 0.0 0.01 0.01 0.01 50 1012.4
20260502033046 48 194 0.0 0.0 0.01 0.01 0.01 53 1012.6
20260502031540 48 194 0.0 0.0 0.00 0.00 0.00 59 1012.5
20260502030040 49 195 0.0 0.0 0.00 0.00 0.00 65 1012.4
20260502024539 50 196 0.0 0.0 0.00 0.00 0.00 69 1012.6
20260502023042 50 196 0.0 3.0 0.00 0.00 0.00 68 1012.5
20260502021538 50 148 0.0 1.0 0.00 0.00 0.00 67 1012.4
20260502020037 50 148 0.0 1.0 0.00 0.00 0.00 67 1012.4
20260502014537 50 205 0.0 1.0 0.00 0.00 0.00 67 1012.3
20260502013044 50 205 0.0 2.0 0.00 0.00 0.00 67 1012.1
20260502011537 50 205 0.0 0.0 0.00 0.00 0.00 67 1012.1
20260502010040 50 205 0.0 0.0 0.00 0.00 0.00 66 1012.1
20260502004552 50 205 0.0 0.0 0.00 0.00 0.00 65 1011.9
20260502003035 52 205 0.0 0.0 0.00 0.00 0.00 63 1011.7
20260502001534 53 205 0.0 1.0 0.00 0.00 0.00 60 1011.8
20260502000048 53 207 0.0 4.0 0.00 0.00 0.00 58 1011.8